[[{"header":{"parameterUnit":"m.s-1","parameterCategory":1,"la1":30.2991,"la2":30.254,"lo1":-89.0895,"lo2":-89.0444,"dy":0.0017,"dx":0.0017,"nx":28,"ny":28,"refTime":"2023-10-09T09:00:00:Z","depth":0,"parameterNumber":2,"parameterNumberName":"U-component_of_WINDS"},"data":[0,0,0,0,0,0,0,0,0,0,0,0,0,0,0,0,0,0,0,0,0,0,0,0,0,0,0,0,0,0,0,0,0,0,0,0,0,0,0,0,0,0,0,0,0,0,0,0,0,0,0,0,0,0,0,0,0,0,-1.9563,-1.9564,0,-1.9683,-1.9684,-1.9686,-1.9708,-1.9707,-1.9706,-1.9705,-1.9829,-1.9833,-1.9837,0,0,0,0,0,0,0,0,0,0,0,0,0,-1.9354,-1.9357,-1.9563,-1.9564,-1.9566,-1.9683,-1.9685,-1.9686,-1.9708,-1.9706,-1.9705,-1.9704,-1.9827,-1.9832,-1.9837,0,0,0,0,0,0,0,0,0,0,0,0,0,-1.9456,-1.9359,-1.9563,-1.9591,-1.9594,-1.9683,-1.9685,-1.9687,-1.9708,-1.9706,-1.9705,-1.9704,-1.9826,-1.9832,-1.9838,-1.9907,0,0,-1.9857,-1.986,0,0,0,0,0,0,0,0,-1.945,-1.9464,-1.9585,-1.9589,-1.9593,-1.9679,-1.9656,-1.976,-1.9708,-1.9665,-1.9705,-1.9703,-1.978,-1.979,-1.9816,-1.9913,-1.9918,-1.9858,-1.9862,-1.9864,-1.9866,0,0,0,0,0,0,0,-1.9443,-1.9459,-1.961,-1.9587,-1.9592,-1.9598,-1.9611,-1.9676,-1.9729,-1.9669,-1.967,-1.9684,-1.9782,-1.981,-1.9819,-1.992,-1.9858,-1.9863,-1.9867,-1.987,-2.008,-2.0081,0,0,0,0,0,0,-1.9431,-1.9453,-1.9607,-1.9614,-1.9517,-1.9603,-1.9617,-1.9653,-1.9729,-1.9739,-1.9685,-1.9685,-1.98,-1.9811,-1.9823,-1.9909,-1.9864,-1.987,-1.9874,-2.0078,-2.008,-2.0082,0,0,0,0,0,0,-1.9426,-1.9444,-1.9602,-1.9534,-1.9554,-1.9608,-1.9648,-1.9656,-1.9684,-1.9741,-1.9751,-1.9704,-1.9799,-1.9814,-1.9886,-1.9914,-1.9873,-1.9879,-2.0076,-2.0078,-2.0081,-2.0081,0,0,0,0,0,0,-1.942,-1.9443,-1.9469,-1.9534,-1.9558,-1.9662,-1.9649,-1.9659,-1.9694,-1.9695,-1.9761,-1.9771,-1.9799,-1.9876,-1.9892,-1.9922,-1.9884,-2.0073,-2.0077,-2.008,-2.0078,-2.0083,-2.0087,0,0,0,0,0,-1.9413,-1.9464,-1.947,-1.9489,-1.9592,-1.9663,-1.9677,-1.9708,-1.9697,-1.9724,-1.9761,-1.9769,-1.9908,-1.9883,-1.9902,-1.9933,-2.0072,-2.0076,-2.008,-2.0076,-2.0082,-2.0087,0,0,0,0,0,0,-1.9401,-1.9473,-1.9481,-1.9555,-1.9603,-1.9667,-1.9702,-1.9713,-1.9765,-1.9763,-1.98,-1.9815,-1.9884,-1.9916,-1.9887,-2.0004,-1.9989,-1.9997,-1.998,-1.9986,-1.999,-1.9981,-1.9889,0,0,0,0,0,-1.9407,-1.9458,-1.9519,-1.9579,-1.9602,-1.9648,-1.968,-1.97,-1.9751,-1.9772,-1.9814,-1.9864,-1.9919,-1.9955,-2.0009,-2.0083,-2.0098,-2.0114,-2.0118,-2.0122,-2.0128,-2.017,-2.0178,-2.0095,-2.0095,-2.0095,0,0,-1.942,-1.9466,-1.9496,-1.9578,-1.9617,-1.967,-1.9665,-1.9721,-1.9761,-1.9781,-1.985,-1.9883,-1.9942,-2.0015,-2.0049,-2.0044,-2.0154,-2.0127,-2.0129,-2.0133,-2.0175,-2.0183,-2.0189,-2.0098,-2.0097,-2.0097,0,0,-1.947,-1.951,-1.9564,-1.9604,-1.9664,-1.9694,-1.9707,-1.977,-1.9792,-1.9863,-1.9879,-1.9927,-2.0021,-2.0062,-2.0095,-2.0162,-2.0171,-2.0178,-2.02,-2.0241,-2.0247,-2.0253,-2.0277,-2.0285,-2.0184,-2.0184,-2.0184,0,-1.9479,-1.9559,-1.9591,-1.9647,-1.9682,-1.9702,-1.9757,-1.9794,-1.9869,-1.9893,-1.9886,-2.0004,-2.0045,-2.0128,-2.0144,-2.0171,-2.0187,-2.017,-2.0244,-2.025,-2.0256,-2.0279,-2.0288,-2.0185,-2.0185,-2.0185,-2.0185,0,-1.9567,-1.9622,-1.9658,-1.9729,-1.9769,-1.9824,-1.9865,-1.9902,-1.9918,-1.9949,-2.0021,-2.0071,-2.0135,-2.0157,-2.0173,-2.0243,-2.0237,-2.0236,-2.0222,-2.0264,-2.0286,-2.0295,-2.0186,-2.0185,-2.0185,-2.0185,0,0,-1.9613,-1.97,-1.9713,-1.9746,-1.9814,-1.9857,-1.9914,-1.9976,-2.0007,-2.0058,-2.0106,-2.0186,-2.0185,-2.0223,-2.0245,-2.028,-2.033,-2.0275,-2.0277,-2.0284,-2.041,-2.0409,-2.0419,-2.0337,-2.0339,-2.034,-2.0405,0,-1.9671,-1.9771,-1.9802,-1.9886,-1.9938,-1.9958,-2.0007,-2.0054,-2.0085,-2.0134,-2.0168,-2.0224,-2.0219,-2.0242,-2.0279,-2.0316,-2.0356,-2.0312,-2.0382,-2.0385,-2.0367,-2.0431,-2.0431,-2.0489,-2.0414,-2.0415,-2.0416,0,-1.9752,-1.9804,-1.9893,-1.9955,-1.9977,-2.0021,-2.0081,-2.0127,-2.0181,-2.0201,-2.0243,-2.0262,-2.0323,-2.0305,-2.0389,-2.0359,-2.039,-2.0412,-2.0416,-2.0423,-2.0402,-2.0439,-2.0508,-2.0517,-2.043,-2.0429,-2.0428,0,-1.9776,-1.9869,-1.9934,-1.9961,-2.0035,-2.0065,-2.0097,-2.0149,-2.0185,-2.0238,-2.0261,-2.0321,-2.0353,-2.0399,-2.0433,-2.0418,-2.0514,-2.05,-2.0533,-2.0532,-2.0552,-2.055,-2.0626,-2.0572,-2.0572,-2.0572,-2.0572,0,-1.9838,-1.9892,-1.9946,-1.9986,-2.0047,-2.0082,-2.0142,-2.0175,-2.0222,-2.0269,-2.0291,-2.0335,-2.0378,-2.0428,-2.0456,-2.0521,-2.0536,-2.0554,-2.056,-2.0552,-2.0549,-2.0572,-2.0569,-2.0574,-2.0574,-2.0573,-2.0573,0,-1.9876,-1.9914,-1.9986,-2.0049,-2.0067,-2.0109,-2.0163,-2.0203,-2.0235,-2.0295,-2.0311,-2.0361,-2.0421,-2.046,-2.0537,-2.0556,-2.0627,-2.0633,-2.0608,-2.0611,-2.0642,-2.0638,-2.0735,-2.0749,-2.0686,-2.0686,-2.0687,0,-1.9912,-1.9954,-2.0022,-2.0055,-2.0087,-2.014,-2.0176,-2.0212,-2.025,-2.0315,-2.0347,-2.0408,-2.0459,-2.0555,-2.0598,-2.0657,-2.0665,-2.0694,-2.0673,-2.0663,-2.0665,-2.0662,-2.0666,-2.0697,-2.0698,-2.0698,-2.0699,0,-1.9974,-1.999,-2.0042,-2.01,-2.0143,-2.0191,-2.0238,-2.0264,-2.0309,-2.035,-2.0411,-2.0451,-2.0529,-2.059,-2.0653,-2.0687,-2.0701,-2.0705,-2.0716,-2.0707,-2.0691,-2.07,-2.0617,-2.0702,-2.0702,-2.0702,-2.0702,-2.0701,-2.0012,-2.005,-2.0103,-2.016,-2.02,-2.0244,-2.0285,-2.0321,-2.0373,-2.0439,-2.0458,-2.0522,-2.0575,-2.0661,-2.0696,-2.0747,-2.0744,-2.0759,-2.0763,-2.0767,-2.0767,-2.0683,-2.0759,-2.0759,-2.0759,-2.0759,-2.0759,0,-2.0074,-2.0109,-2.0161,-2.0227,-2.0272,-2.028,-2.0334,-2.0371,-2.0426,-2.0475,-2.0525,-2.0595,-2.0655,-2.0703,-2.0764,-2.0796,-2.0804,-2.0811,-2.0809,-2.0816,-2.0766,-2.0751,-2.0803,-2.0803,-2.0803,-2.0803,-2.0803,-2.0803,-2.0112,-2.0177,-2.02,-2.0284,-2.032,-2.0382,-2.0412,-2.0453,-2.0492,-2.057,-2.0619,-2.065,-2.0698,-2.0763,-2.0818,-2.0831,-2.0853,-2.0858,-2.0872,-2.0825,-2.082,-2.0815,-2.0801,-2.0863,-2.0863,-2.0918,-2.0918,-2.0919]},{"header":{"parameterUnit":"m.s-1","parameterCategory":1,"la1":30.2991,"la2":30.254,"lo1":-89.0895,"lo2":-89.0444,"dy":0.0017,"dx":0.0017,"nx":28,"ny":28,"refTime":"2023-10-09T09:00:00:Z","depth":0,"parameterNumber":3,"parameterNumberName":"V-component_of_WINDS"},"data":[0,0,0,0,0,0,0,0,0,0,0,0,0,0,0,0,0,0,0,0,0,0,0,0,0,0,0,0,0,0,0,0,0,0,0,0,0,0,0,0,0,0,0,0,0,0,0,0,0,0,0,0,0,0,0,0,0,0,3.0681,3.068,0,3.0667,3.0667,3.0667,3.0556,3.0553,3.055,3.0547,3.0534,3.0537,3.0539,0,0,0,0,0,0,0,0,0,0,0,0,0,3.0609,3.0611,3.0681,3.068,3.068,3.0667,3.0667,3.0667,3.0556,3.0553,3.0549,3.0546,3.0534,3.0536,3.0539,0,0,0,0,0,0,0,0,0,0,0,0,0,3.0623,3.0612,3.0681,3.0623,3.0618,3.0667,3.0667,3.0667,3.0557,3.0553,3.0548,3.0545,3.0533,3.0536,3.0539,3.0643,0,0,3.055,3.0551,0,0,0,0,0,0,0,0,3.0622,3.0626,3.0632,3.0627,3.0621,3.0609,3.0637,3.0659,3.0558,3.058,3.0547,3.0543,3.0563,3.0563,3.057,3.0642,3.0642,3.055,3.0552,3.0553,3.0554,0,0,0,0,0,0,0,3.0621,3.0626,3.0675,3.0632,3.0626,3.0598,3.0596,3.0641,3.0595,3.0578,3.057,3.057,3.0559,3.0567,3.0569,3.0642,3.055,3.0553,3.0555,3.0556,3.0797,3.0801,0,0,0,0,0,0,3.0628,3.0625,3.0676,3.0675,3.0612,3.0603,3.06,3.0617,3.0594,3.0586,3.0573,3.0564,3.0563,3.0565,3.0568,3.0686,3.0553,3.0556,3.0558,3.0792,3.0798,3.0803,0,0,0,0,0,0,3.0627,3.0634,3.0676,3.0648,3.0651,3.0608,3.0629,3.0619,3.0627,3.059,3.0582,3.059,3.056,3.0563,3.0625,3.0684,3.0558,3.0561,3.0787,3.0794,3.08,3.0924,0,0,0,0,0,0,3.0626,3.0634,3.0673,3.065,3.0653,3.0734,3.0632,3.0622,3.0633,3.0621,3.0604,3.0597,3.0557,3.062,3.0628,3.0686,3.0564,3.0782,3.079,3.0798,3.0914,3.0934,3.0951,0,0,0,0,0,3.0624,3.0709,3.0676,3.0682,3.0701,3.0737,3.0739,3.0692,3.0638,3.0676,3.0653,3.0597,3.0677,3.0628,3.0635,3.0695,3.0778,3.0788,3.0797,3.0906,3.093,3.095,0,0,0,0,0,0,3.0741,3.0705,3.0668,3.0748,3.0747,3.0718,3.0765,3.0719,3.0733,3.0721,3.0662,3.0659,3.0729,3.0719,3.0664,3.0794,3.0718,3.0729,3.0798,3.082,3.0838,3.0838,3.0566,0,0,0,0,0,3.0776,3.0809,3.0775,3.085,3.0851,3.0809,3.0823,3.0786,3.0782,3.0781,3.0762,3.0761,3.0785,3.0802,3.0823,3.0913,3.0907,3.0958,3.0977,3.0992,3.1002,3.1048,3.1069,3.0835,3.0835,3.0835,0,0,3.0849,3.0833,3.0858,3.0873,3.0867,3.0902,3.0809,3.085,3.0874,3.0787,3.0843,3.083,3.0824,3.0901,3.0933,3.0894,3.1066,3.1004,3.1017,3.1019,3.106,3.1082,3.1102,3.0842,3.084,3.0839,0,0,3.0999,3.0991,3.1051,3.1048,3.104,3.1012,3.1027,3.1006,3.0993,3.1049,3.0984,3.1013,3.1057,3.1055,3.106,3.1209,3.1158,3.1218,3.1312,3.1357,3.1376,3.1392,3.1444,3.1463,3.1229,3.1229,3.1229,0,3.109,3.114,3.1088,3.1133,3.1141,3.1064,3.1123,3.1123,3.1123,3.113,3.1087,3.1139,3.113,3.1204,3.124,3.1248,3.1262,3.1219,3.1377,3.1393,3.1407,3.1456,3.1476,3.1236,3.1236,3.1235,3.1234,0,3.1251,3.1287,3.1336,3.1337,3.1351,3.1404,3.136,3.138,3.1343,3.1319,3.1377,3.1363,3.1379,3.1394,3.1359,3.1463,3.1439,3.1388,3.1309,3.1437,3.1482,3.15,3.1247,3.1244,3.1242,3.124,0,0,3.1473,3.1446,3.1464,3.1463,3.145,3.1476,3.1525,3.154,3.1558,3.1562,3.16,3.1639,3.1591,3.1597,3.1561,3.1601,3.1718,3.1544,3.1543,3.1575,3.1831,3.1868,3.189,3.1685,3.1688,3.1691,3.183,0,3.1616,3.1697,3.1652,3.1739,3.177,3.1698,3.174,3.1736,3.1716,3.1739,3.1717,3.1744,3.168,3.1683,3.1719,3.1696,3.1768,3.1686,3.1719,3.1721,3.1721,3.1914,3.1953,3.2085,3.1848,3.1851,3.1853,0,3.1792,3.1802,3.1893,3.1872,3.1883,3.1922,3.1932,3.1956,3.195,3.1933,3.1939,3.1893,3.1939,3.1864,3.1926,3.1871,3.1883,3.1874,3.1878,3.1877,3.1793,3.1917,3.2127,3.2146,3.188,3.1878,3.1876,0,3.1943,3.1979,3.2037,3.2039,3.2017,3.2046,3.2038,3.2029,3.204,3.205,3.2056,3.2072,3.2079,3.2092,3.2051,3.2,3.2119,3.204,3.2104,3.2105,3.213,3.2129,3.2343,3.2142,3.2142,3.2141,3.2141,0,3.2105,3.2163,3.2104,3.2139,3.2201,3.215,3.2213,3.2197,3.219,3.2221,3.216,3.2191,3.2136,3.2161,3.213,3.2186,3.219,3.2176,3.2167,3.2181,3.2182,3.2186,3.2175,3.2146,3.2145,3.2144,3.2143,0,3.2282,3.2246,3.2304,3.2279,3.2274,3.232,3.2298,3.233,3.2306,3.2346,3.2353,3.2314,3.2341,3.2302,3.2325,3.2304,3.238,3.2357,3.2381,3.2374,3.2439,3.2433,3.2661,3.2688,3.2472,3.2474,3.2476,0,3.2387,3.243,3.2409,3.2425,3.2421,3.2448,3.246,3.2411,3.2425,3.2422,3.2454,3.2476,3.249,3.2536,3.251,3.2527,3.2503,3.2582,3.2505,3.2517,3.2502,3.2499,3.2502,3.2597,3.26,3.2602,3.2604,0,3.2577,3.2556,3.2575,3.2588,3.2603,3.2611,3.2614,3.2631,3.2579,3.2599,3.2625,3.2636,3.2659,3.268,3.2691,3.2683,3.2635,3.2629,3.2644,3.2657,3.2668,3.2661,3.2422,3.2623,3.2621,3.262,3.2619,3.2618,3.272,3.2753,3.2743,3.2766,3.2763,3.2768,3.2796,3.2775,3.2796,3.2809,3.278,3.2813,3.2806,3.2815,3.2813,3.2838,3.2803,3.2826,3.2832,3.2838,3.2847,3.2666,3.284,3.284,3.2839,3.2839,3.2838,0,3.2904,3.2894,3.2916,3.2921,3.2939,3.2893,3.2894,3.2912,3.2942,3.294,3.2955,3.2984,3.3005,3.2982,3.2998,3.3023,3.3001,3.3029,3.3025,3.3024,3.2878,3.2862,3.3046,3.3046,3.3046,3.3046,3.3046,3.3046,3.3002,3.3056,3.3034,3.3086,3.3076,3.3107,3.3112,3.3116,3.3113,3.3149,3.3166,3.315,3.3139,3.3154,3.3171,3.3164,3.3172,3.3207,3.3191,3.3055,3.3034,3.3015,3.2999,3.3209,3.321,3.3335,3.3336,3.3337]}]]